GPS BIII-7 (PRN 01)

Last updated on Tue Jul 01 2025 00:03:14 GMT+0000 (Coordinated Universal Time)

1 62339U 24242A 25180.79371568 -.00000104 00000+0 00000+0 0 9993 2 62339 54.9715 348.4554 0005890 349.3655 329.9616 2.00558920 4186
UTC large
Height (km)
Speed (km/s)
/
Latitude / Longitude
Inclination (degrees)
Orbital Period (minutes)
Azimuth
Elevation
Range (km)
Doppler Factor

Next 0 passes for location: London (51.5072 / 0.1276)

Sorry there are no passes over London.